This is the latest recevied weather packets stored in our database for station/object K2YYD-2. If no packets are shown the sender has not sent any weather packets the latest 1 day(s).
| Time | Temp. | Humidity | Pressure | Rain* | Wind** | Luminosity | Snow |
|---|---|---|---|---|---|---|---|
| 1777980273 | 13.33° C | 91% | 1008 hPa | 0 mm | 0.89 m/s, 173° | 133 W/m² | - |
| 1777980153 | 13.33° C | 91% | 1007.9 hPa | 0 mm | 0.89 m/s, 158° | 125 W/m² | - |
| 1777980033 | 13.33° C | 91% | 1007.9 hPa | 0 mm | 0.89 m/s, 130° | 117 W/m² | - |
| 1777979913 | 12.78° C | 92% | 1007.9 hPa | 0 mm | 0.89 m/s, 163° | 82 W/m² | - |
| 1777979792 | 12.78° C | 92% | 1007.9 hPa | 0 mm | 0.45 m/s, 168° | 69 W/m² | - |
| 1777979673 | 12.78° C | 92% | 1007.9 hPa | 0 mm | 0.89 m/s, 155° | 69 W/m² | - |
| 1777979553 | 12.78° C | 93% | 1007.9 hPa | 0 mm | 0.89 m/s, 0° | 70 W/m² | - |
| 1777979430 | 12.78° C | 93% | 1007.9 hPa | 0 mm | 0.89 m/s, 169° | 78 W/m² | - |
| 1777979310 | 12.78° C | 93% | 1007.9 hPa | 0 mm | 0.89 m/s, 177° | 80 W/m² | - |
| 1777979190 | 12.78° C | 94% | 1007.9 hPa | 0 mm | 0.89 m/s, 166° | 98 W/m² | - |
| 1777979070 | 12.22° C | 94% | 1007.9 hPa | 0 mm | 0.45 m/s, 145° | 93 W/m² | - |
| 1777978951 | 12.22° C | 94% | 1007.9 hPa | 0 mm | 0.45 m/s, 136° | 95 W/m² | - |
| 1777978831 | 12.22° C | 95% | 1007.9 hPa | 0 mm | 0.45 m/s, 174° | 107 W/m² | - |
| 1777978710 | 12.22° C | 95% | 1007.8 hPa | 0 mm | 0.45 m/s, 141° | 80 W/m² | - |
| 1777978590 | 12.22° C | 95% | 1007.8 hPa | 0 mm | 0.45 m/s, 170° | 64 W/m² | - |
| 1777978470 | 12.22° C | 95% | 1007.8 hPa | 0 mm | 0.45 m/s, 160° | 58 W/m² | - |
| 1777978351 | 11.67° C | 95% | 1007.7 hPa | 0 mm | 0.45 m/s, 153° | 63 W/m² | - |
| 1777978229 | 11.67° C | 95% | 1007.7 hPa | 0 mm | 0.45 m/s, 143° | 62 W/m² | - |
| 1777978109 | 11.67° C | 95% | 1007.7 hPa | 0 mm | 0.45 m/s, 158° | 48 W/m² | - |
| 1777977988 | 11.67° C | 95% | 1007.7 hPa | 0 mm | 0.45 m/s, 235° | 41 W/m² | - |
| 1777977878 | 11.67° C | 95% | 1007.7 hPa | 0 mm | 0.45 m/s, 0° | 38 W/m² | - |
| 1777977749 | 11.67° C | 95% | 1007.7 hPa | 0 mm | 0.45 m/s, 210° | 38 W/m² | - |
| 1777977630 | 11.67° C | 95% | 1007.7 hPa | 0 mm | 0.45 m/s, 189° | 39 W/m² | - |
| 1777977509 | 11.67° C | 95% | 1007.8 hPa | 0 mm | 0.45 m/s, 294° | 38 W/m² | - |
| 1777977389 | 11.67° C | 95% | 1007.7 hPa | 0 mm | 0.45 m/s, 0° | 34 W/m² | - |
* Rain latest hour (hover to see other rain measurements)
** Current wind speed in m/s (hover to see current wind gust speed)